Simultaneous Nadir Overpasses (SNOs) Predictions

Prediction of SNOs between METOP-B and NOAA-19 Satellite Orbit:

Table of predicted SNOs for the next 14.0 days since TLE Epoch: 2/8/2019
Index Date (METOP-B) Time (METOP-B) Lat,Lon (METOP-B) SZA (METOP-B ) Date (NOAA-19) Time (NOAA-19) Lat,Lon (NOAA-19) SZA (NOAA-19 ) Distance(km) Time Diff (sec)
1 02/12/2019 17:04:42 -78.99, 117.74 87.28 02/12/2019 17:03:39 -79.00, 117.80 87.28 1.28 63
2 02/12/2019 17:55:22 78.99, -74.93 92.72 02/12/2019 17:54:35 79.01, -75.02 92.72 2.55 47
3 02/12/2019 18:46:04 -78.98, 92.31 87.32 02/12/2019 18:45:40 -79.00, 92.28 87.30 2.26 24
4 02/12/2019 19:36:44 78.98,-100.36 92.68 02/12/2019 19:36:35 78.98,-100.27 92.68 1.78 9
5 02/12/2019 20:27:26 -78.97, 66.88 87.36 02/12/2019 20:27:40 -78.97, 67.02 87.35 3.08 14
6 02/12/2019 21:18:06 78.97,-125.79 92.64 02/12/2019 21:18:36 78.98,-125.79 92.65 1.46 30
7 02/12/2019 22:08:48 -78.95, 41.45 87.40 02/12/2019 22:09:41 -78.97, 41.51 87.37 2.29 53
8 02/12/2019 22:59:28 78.95,-151.22 92.60 02/12/2019 23:00:36 78.95,-151.05 92.61 3.64 68




NCC Satellite Simultaneous Nadir Overpasses (SNOs) Prediction Service
